[[{"header":{"parameterUnit":"m.s-1","parameterCategory":1,"la1":30.2991,"la2":30.254,"lo1":-89.0895,"lo2":-89.0444,"dy":0.0017,"dx":0.0017,"nx":28,"ny":28,"refTime":"2025-12-28T03:00:00:Z","depth":0,"parameterNumber":2,"parameterNumberName":"U-component_of_WINDS"},"data":[0,0,0,0,0,0,0,0,0,0,0,0,0,0,0,0,0,0,0,0,0,0,0,0,0,0,0,0,0,0,0,0,0,0,0,0,0,0,0,0,0,0,0,0,0,0,0,0,0,0,0,0,0,0,0,0,0,0,-2.4071,-2.4071,0,-2.4082,-2.4082,-2.4082,-2.4025,-2.4023,-2.4022,-2.402,-2.4032,-2.4034,-2.4036,0,0,0,0,0,0,0,0,0,0,0,0,0,-2.4,-2.4002,-2.4071,-2.4071,-2.4071,-2.4082,-2.4082,-2.4083,-2.4025,-2.4023,-2.4021,-2.4019,-2.4032,-2.4034,-2.4036,0,0,0,0,0,0,0,0,0,0,0,0,0,-2.4023,-2.4002,-2.4071,-2.4044,-2.4042,-2.4082,-2.4082,-2.4083,-2.4026,-2.4023,-2.4021,-2.4018,-2.4031,-2.4034,-2.4036,-2.4104,0,0,-2.4045,-2.4046,0,0,0,0,0,0,0,0,-2.4022,-2.4026,-2.4048,-2.4046,-2.4043,-2.405,-2.4062,-2.409,-2.4026,-2.4032,-2.402,-2.4017,-2.404,-2.4042,-2.405,-2.4104,-2.4105,-2.4045,-2.4047,-2.4048,-2.4049,0,0,0,0,0,0,0,-2.402,-2.4025,-2.4075,-2.4048,-2.4045,-2.4031,-2.4032,-2.4067,-2.405,-2.4031,-2.4027,-2.4029,-2.4038,-2.4047,-2.405,-2.4105,-2.4045,-2.4048,-2.405,-2.4051,-2.4214,-2.4217,0,0,0,0,0,0,-2.4022,-2.4024,-2.4075,-2.4076,-2.4026,-2.4035,-2.4035,-2.405,-2.4049,-2.4047,-2.4031,-2.4026,-2.4044,-2.4046,-2.405,-2.4127,-2.4048,-2.4051,-2.4053,-2.4212,-2.4215,-2.4218,0,0,0,0,0,0,-2.4021,-2.4027,-2.4075,-2.4049,-2.4054,-2.4039,-2.4056,-2.4052,-2.406,-2.4049,-2.4046,-2.4043,-2.4042,-2.4046,-2.409,-2.4127,-2.4052,-2.4055,-2.4209,-2.4213,-2.4216,-2.4283,0,0,0,0,0,0,-2.4019,-2.4027,-2.4053,-2.405,-2.4055,-2.4115,-2.4058,-2.4054,-2.4065,-2.4059,-2.406,-2.4057,-2.404,-2.4087,-2.4093,-2.4129,-2.4057,-2.4205,-2.421,-2.4215,-2.4278,-2.4289,-2.4299,0,0,0,0,0,-2.4017,-2.4071,-2.4054,-2.4061,-2.4087,-2.4117,-2.412,-2.4099,-2.4068,-2.4093,-2.4086,-2.4057,-2.4122,-2.4092,-2.4099,-2.4136,-2.4203,-2.4209,-2.4215,-2.4273,-2.4287,-2.4299,0,0,0,0,0,0,-2.4079,-2.4071,-2.4051,-2.4107,-2.4113,-2.4108,-2.4139,-2.4115,-2.413,-2.4124,-2.4097,-2.4098,-2.4147,-2.4146,-2.4112,-2.4201,-2.4157,-2.4165,-2.4199,-2.4212,-2.4222,-2.4221,-2.4059,0,0,0,0,0,-2.4099,-2.4125,-2.4116,-2.4166,-2.417,-2.4154,-2.4167,-2.415,-2.4155,-2.4158,-2.4154,-2.4161,-2.4183,-2.4198,-2.4217,-2.4278,-2.4277,-2.4307,-2.4318,-2.4326,-2.4333,-2.4364,-2.4377,-2.4237,-2.4237,-2.4237,0,0,-2.4141,-2.414,-2.4157,-2.4178,-2.4181,-2.4208,-2.4157,-2.4188,-2.4207,-2.4163,-2.4204,-2.4202,-2.4208,-2.426,-2.4283,-2.4261,-2.4371,-2.4334,-2.4341,-2.4343,-2.4371,-2.4384,-2.4396,-2.4241,-2.4241,-2.424,0,0,-2.4231,-2.4233,-2.4273,-2.4278,-2.4283,-2.4272,-2.4282,-2.428,-2.4276,-2.4318,-2.4285,-2.4308,-2.4346,-2.4351,-2.4359,-2.4451,-2.4424,-2.4458,-2.4512,-2.4543,-2.4553,-2.4563,-2.4594,-2.4606,-2.4465,-2.4465,-2.4465,0,-2.4282,-2.4321,-2.4298,-2.433,-2.434,-2.4301,-2.4342,-2.4347,-2.4359,-2.4366,-2.4342,-2.4388,-2.439,-2.4442,-2.4465,-2.4473,-2.4483,-2.4457,-2.4554,-2.4563,-2.4572,-2.4601,-2.4613,-2.4469,-2.4469,-2.4468,-2.4468,0,-2.4383,-2.441,-2.4443,-2.4454,-2.4468,-2.4505,-2.4487,-2.4504,-2.4486,-2.4478,-2.452,-2.452,-2.4538,-2.455,-2.4533,-2.46,-2.4586,-2.4558,-2.4513,-2.4589,-2.4616,-2.4627,-2.4475,-2.4473,-2.4472,-2.4471,0,0,-2.4511,-2.4509,-2.4521,-2.4525,-2.4528,-2.4549,-2.4584,-2.4602,-2.4616,-2.4626,-2.4653,-2.4687,-2.4661,-2.467,-2.4653,-2.468,-2.4751,-2.4649,-2.4648,-2.4666,-2.4823,-2.4842,-2.4856,-2.4734,-2.4736,-2.4738,-2.4822,0,-2.4597,-2.4656,-2.4636,-2.4696,-2.472,-2.4684,-2.4714,-2.4719,-2.4713,-2.4733,-2.4726,-2.4749,-2.4714,-2.4719,-2.4744,-2.4737,-2.4782,-2.4731,-2.4759,-2.476,-2.4756,-2.487,-2.4891,-2.497,-2.4832,-2.4834,-2.4835,0,-2.4705,-2.4718,-2.478,-2.4778,-2.4787,-2.4815,-2.4829,-2.4849,-2.4854,-2.4847,-2.4857,-2.4835,-2.4869,-2.4826,-2.4872,-2.4838,-2.4848,-2.4847,-2.4849,-2.4849,-2.4801,-2.4871,-2.4995,-2.5006,-2.4852,-2.4851,-2.485,0,-2.479,-2.4823,-2.4864,-2.4869,-2.4868,-2.4888,-2.4889,-2.4891,-2.4903,-2.4916,-2.4923,-2.494,-2.4949,-2.4962,-2.4945,-2.4915,-2.4993,-2.4949,-2.4987,-2.4988,-2.5004,-2.5003,-2.5129,-2.5014,-2.5014,-2.5014,-2.5014,0,-2.4887,-2.4926,-2.4902,-2.4927,-2.4969,-2.4947,-2.4989,-2.4986,-2.4989,-2.5012,-2.4983,-2.5006,-2.4983,-2.5004,-2.4991,-2.503,-2.5035,-2.5029,-2.5025,-2.5031,-2.5031,-2.5036,-2.5029,-2.5017,-2.5016,-2.5016,-2.5015,0,-2.4988,-2.4974,-2.5016,-2.5011,-2.5011,-2.5042,-2.5039,-2.5062,-2.5053,-2.5083,-2.5089,-2.5076,-2.5099,-2.5083,-2.5107,-2.5098,-2.5149,-2.5138,-2.5147,-2.5143,-2.5182,-2.5177,-2.5313,-2.5329,-2.5207,-2.5208,-2.5209,0,-2.505,-2.5079,-2.5077,-2.5091,-2.5093,-2.5115,-2.5127,-2.5106,-2.5119,-2.5127,-2.5149,-2.5169,-2.5184,-2.5222,-2.5214,-2.5232,-2.522,-2.5266,-2.5222,-2.5227,-2.5218,-2.5216,-2.5218,-2.5275,-2.5276,-2.5277,-2.5278,0,-2.516,-2.5152,-2.5169,-2.5184,-2.5199,-2.521,-2.5218,-2.5231,-2.521,-2.5226,-2.5249,-2.5261,-2.5284,-2.5304,-2.5318,-2.5319,-2.5295,-2.5293,-2.5302,-2.5307,-2.531,-2.5307,-2.5169,-2.5289,-2.5288,-2.5287,-2.5286,-2.5286,-2.5242,-2.5266,-2.5268,-2.5288,-2.5293,-2.5301,-2.5322,-2.5316,-2.5334,-2.5351,-2.5338,-2.5365,-2.5369,-2.5386,-2.5389,-2.541,-2.5391,-2.5405,-2.5408,-2.5411,-2.5416,-2.5309,-2.5413,-2.5412,-2.5412,-2.5412,-2.5411,0,-2.535,-2.5349,-2.5368,-2.5381,-2.5397,-2.5373,-2.5381,-2.5396,-2.542,-2.5425,-2.544,-2.5466,-2.5485,-2.548,-2.5497,-2.5514,-2.5503,-2.5519,-2.5516,-2.5517,-2.5433,-2.5422,-2.5527,-2.5527,-2.5527,-2.5527,-2.5527,-2.5527,-2.5407,-2.5445,-2.5437,-2.5477,-2.5476,-2.5502,-2.5508,-2.5516,-2.552,-2.555,-2.5565,-2.5561,-2.5562,-2.5579,-2.5595,-2.5593,-2.56,-2.5619,-2.5613,-2.5534,-2.5523,-2.5512,-2.5501,-2.5622,-2.5622,-2.5695,-2.5695,-2.5696]},{"header":{"parameterUnit":"m.s-1","parameterCategory":1,"la1":30.2991,"la2":30.254,"lo1":-89.0895,"lo2":-89.0444,"dy":0.0017,"dx":0.0017,"nx":28,"ny":28,"refTime":"2025-12-28T03:00:00:Z","depth":0,"parameterNumber":3,"parameterNumberName":"V-component_of_WINDS"},"data":[0,0,0,0,0,0,0,0,0,0,0,0,0,0,0,0,0,0,0,0,0,0,0,0,0,0,0,0,0,0,0,0,0,0,0,0,0,0,0,0,0,0,0,0,0,0,0,0,0,0,0,0,0,0,0,0,0,0,1.3436,1.3437,0,1.3482,1.3483,1.3483,1.3511,1.3511,1.3512,1.3512,1.3559,1.356,1.3561,0,0,0,0,0,0,0,0,0,0,0,0,0,1.3375,1.3376,1.3436,1.3437,1.3438,1.3482,1.3483,1.3484,1.3511,1.3512,1.3512,1.3512,1.3559,1.356,1.3561,0,0,0,0,0,0,0,0,0,0,0,0,0,1.3409,1.3376,1.3436,1.3457,1.3459,1.3482,1.3483,1.3484,1.3511,1.3512,1.3512,1.3512,1.3558,1.356,1.3561,1.3568,0,0,1.3567,1.3567,0,0,0,0,0,0,0,0,1.3407,1.3412,1.3453,1.3455,1.3458,1.3491,1.3479,1.3512,1.3511,1.3491,1.3512,1.3512,1.3536,1.354,1.3548,1.357,1.3572,1.3567,1.3568,1.3569,1.3569,0,0,0,0,0,0,0,1.3405,1.341,1.3455,1.3454,1.3457,1.3465,1.347,1.3485,1.3512,1.3493,1.3495,1.35,1.3538,1.3546,1.3549,1.3573,1.3567,1.3568,1.3569,1.357,1.3606,1.3606,0,0,0,0,0,0,1.3399,1.3408,1.3453,1.3456,1.3433,1.3465,1.3471,1.348,1.3512,1.3517,1.35,1.3502,1.3543,1.3547,1.3551,1.3563,1.3569,1.357,1.3571,1.3606,1.3606,1.3606,0,0,0,0,0,0,1.3398,1.3403,1.3451,1.3433,1.3439,1.3466,1.3477,1.3481,1.349,1.3517,1.3522,1.3504,1.3544,1.3549,1.3564,1.3565,1.3571,1.3572,1.3606,1.3606,1.3606,1.3585,0,0,0,0,0,0,1.3396,1.3402,1.3404,1.3432,1.344,1.3463,1.3476,1.3482,1.3493,1.3495,1.3522,1.3527,1.3544,1.3562,1.3566,1.3567,1.3574,1.3606,1.3606,1.3606,1.3586,1.3584,1.3583,0,0,0,0,0,1.3394,1.3396,1.3404,1.3409,1.3443,1.3463,1.3467,1.3487,1.3493,1.3495,1.3514,1.3526,1.3564,1.3563,1.3568,1.357,1.3606,1.3606,1.3606,1.3586,1.3584,1.3583,0,0,0,0,0,0,1.3366,1.34,1.3409,1.342,1.3439,1.3467,1.3471,1.3484,1.3501,1.3502,1.3526,1.3532,1.3546,1.3559,1.3558,1.358,1.3587,1.3588,1.357,1.3568,1.3567,1.3564,1.3575,0,0,0,0,0,1.3362,1.3374,1.3403,1.341,1.3419,1.3444,1.3453,1.3467,1.3487,1.3494,1.3514,1.3533,1.3549,1.356,1.3576,1.3588,1.3596,1.3592,1.3591,1.3589,1.359,1.36,1.3599,1.3606,1.3606,1.3606,0,0,1.3352,1.3372,1.3378,1.3405,1.3421,1.3435,1.345,1.3463,1.3474,1.3496,1.3513,1.3528,1.3551,1.3565,1.3573,1.3577,1.359,1.3589,1.3588,1.3589,1.36,1.3599,1.3599,1.3605,1.3606,1.3606,0,0,1.3341,1.3357,1.3366,1.3382,1.3406,1.3423,1.3425,1.3453,1.3464,1.3481,1.3499,1.3513,1.354,1.3557,1.3569,1.3568,1.3581,1.3573,1.3565,1.3575,1.3574,1.3574,1.3576,1.3576,1.3573,1.3573,1.3573,0,1.3326,1.3347,1.3369,1.3382,1.3394,1.3416,1.3427,1.3441,1.3469,1.3478,1.3482,1.352,1.3536,1.3556,1.3557,1.3565,1.357,1.357,1.3573,1.3573,1.3573,1.3575,1.3575,1.3572,1.3572,1.3572,1.3573,0,1.3328,1.3343,1.3347,1.3375,1.3388,1.3399,1.3424,1.3435,1.3449,1.3465,1.3484,1.3506,1.3528,1.3534,1.3547,1.3557,1.3559,1.3568,1.3576,1.3571,1.3573,1.3574,1.3571,1.3571,1.3571,1.3572,0,0,1.33,1.3342,1.3343,1.3357,1.3387,1.3399,1.3413,1.3435,1.3445,1.3464,1.3478,1.3502,1.3511,1.3525,1.354,1.3549,1.355,1.3557,1.3558,1.3556,1.3565,1.3559,1.3559,1.3559,1.3559,1.3559,1.3564,0,1.3295,1.332,1.3341,1.3359,1.3374,1.3397,1.3409,1.343,1.3447,1.3463,1.3482,1.3499,1.3509,1.3518,1.3527,1.3548,1.3552,1.3547,1.3573,1.3573,1.3567,1.356,1.3553,1.3556,1.3565,1.3565,1.3565,0,1.3292,1.3312,1.3331,1.3362,1.3369,1.3379,1.3404,1.3418,1.3443,1.3455,1.3472,1.3488,1.3506,1.3512,1.3538,1.3534,1.3546,1.3558,1.3559,1.3562,1.3569,1.3565,1.3557,1.3558,1.3566,1.3566,1.3566,0,1.3271,1.3303,1.3319,1.333,1.3366,1.3374,1.3389,1.3414,1.3427,1.3448,1.3458,1.3481,1.3494,1.3512,1.3535,1.3537,1.3559,1.3567,1.3571,1.3571,1.3574,1.3574,1.357,1.3581,1.3581,1.3581,1.358,0,1.3264,1.3275,1.3311,1.3321,1.3335,1.3361,1.3375,1.3392,1.3415,1.343,1.3451,1.3465,1.3494,1.3512,1.3531,1.3551,1.3556,1.3567,1.3572,1.3566,1.3565,1.3574,1.3575,1.3581,1.3581,1.3581,1.3581,0,1.3243,1.3267,1.3287,1.332,1.3329,1.3338,1.3367,1.3379,1.3398,1.3417,1.3423,1.3453,1.3476,1.3501,1.3532,1.3545,1.3564,1.357,1.3556,1.3559,1.3562,1.3562,1.3565,1.3567,1.3575,1.3575,1.3575,0,1.3237,1.3246,1.3281,1.3293,1.3308,1.3326,1.3341,1.3367,1.3381,1.3412,1.342,1.3445,1.3466,1.3502,1.3527,1.3552,1.356,1.3559,1.3563,1.3558,1.3562,1.3561,1.3563,1.3558,1.3557,1.3557,1.3557,0,1.3224,1.3236,1.3256,1.328,1.3297,1.3317,1.3339,1.3347,1.3378,1.3394,1.3417,1.3434,1.3467,1.3492,1.352,1.3537,1.3553,1.3556,1.3558,1.3552,1.3544,1.355,1.3553,1.3555,1.3556,1.3556,1.3556,1.3556,1.3212,1.3222,1.3249,1.3271,1.329,1.331,1.3324,1.3345,1.3366,1.3394,1.3409,1.3433,1.3461,1.3501,1.3518,1.3539,1.3543,1.3546,1.3547,1.3548,1.3547,1.354,1.3544,1.3544,1.3544,1.3544,1.3544,0,1.3201,1.322,1.324,1.327,1.3288,1.3301,1.3327,1.3341,1.3362,1.3386,1.3407,1.3436,1.3462,1.349,1.3517,1.3528,1.3537,1.3535,1.3535,1.3539,1.354,1.3536,1.3528,1.3528,1.3528,1.3528,1.3528,1.3528,1.3198,1.3217,1.3233,1.3263,1.3283,1.3307,1.332,1.334,1.336,1.3391,1.3412,1.3431,1.3458,1.3488,1.3512,1.352,1.353,1.3526,1.3536,1.3537,1.3538,1.354,1.3536,1.3528,1.3528,1.3533,1.3533,1.3533]}]]